This demonstration page uses our WeatherBlox Daily Observations layout. Learn more.

Left ArrowRight Arrow

41.55636, -103.73856

Hourly Observations for November 5, 2021

Temp ( °F °C ) Dew Point ( °F °C ) Humidity (%) Winds ( mph kmh ) Pressure ( in mb ) Visibility ( mi km ) Precip ( " mm )
12:58 am 00:58 Clear 49 9.7 27 -2.9 41 41 SW 12 19 29.86 1011 10 16 0.00 0.00
1:58 am 01:58 Mostly Clear 48 9 27 -2.8 44 44 W 8 13 29.86 1011 10 16 0.00 0.00
2:58 am 02:58 Mostly Clear 45 7.3 29 -1.7 53 53 SW 8 13 29.88 1012 10 16 0.00 0.00
3:58 am 03:58 Mostly Clear 47 8.4 28 -2.1 48 48 NNW 3 6 29.90 1013 10 16 0.00 0.00
4:58 am 04:58 Clear 47 8.3 28 -2 49 49 W 6 9 29.92 1013 10 16 0.00 0.00
5:58 am 05:58 Clear 52 11.1 29 -1.9 41 41 W 14 22 29.94 1014 10 16 0.00 0.00
6:58 am 06:58 Clear 52 11.1 29 -1.6 42 42 NW 13 20 29.95 1014 10 16 0.00 0.00
7:58 am 07:58 Sunny 51 10.8 30 -1.2 44 44 N 5 7 29.99 1016 10 16 0.00 0.00
8:58 am 08:58 Sunny 53 11.5 31 -0.8 43 43 W 10 17 30.01 1016 10 16 0.00 0.00
9:58 am 09:58 Sunny 59 15.2 29 -1.7 31 31 W 12 19 30.00 1016 10 16 0.00 0.00
10:58 am 10:58 Sunny 62 16.4 29 -1.5 30 30 WNW 12 19 30.01 1016 10 16 0.00 0.00
11:58 am 11:58 Sunny 64 17.5 28 -2.1 26 26 WNW 15 24 29.98 1015 10 16 0.00 0.00
12:58 pm 12:58 Sunny 66 19 27 -2.8 23 23 NW 18 30 29.95 1014 10 16 0.00 0.00
1:58 pm 13:58 Sunny 67 19.6 24 -4.4 19 19 NW 22 35 29.94 1014 10 16 0.00 0.00
2:58 pm 14:58 Sunny 69 20.7 17 -8.4 13 13 NW 29 46 29.95 1014 10 16 0.00 0.00
3:58 pm 15:58 Sunny 68 20.2 15 -9.3 13 13 WNW 23 37 29.96 1015 10 16 0.00 0.00
4:58 pm 16:58 Sunny 65 18.4 19 -7.2 17 17 NW 14 22 29.97 1015 10 16 0.00 0.00
5:58 pm 17:58 Clear 60 15.8 20 -6.4 21 21 WNW 16 26 29.98 1015 10 16 0.00 0.00
6:58 pm 18:58 Clear 53 11.6 24 -4.5 32 32 W 14 22 30.02 1017 10 16 0.00 0.00
7:58 pm 19:58 Clear 53 11.5 24 -4.5 33 33 WNW 10 17 30.05 1018 10 16 0.00 0.00
8:58 pm 20:58 Clear 49 9.4 26 -3.5 40 40 W 10 17 30.07 1018 10 16 0.00 0.00
9:58 pm 21:58 Mostly Clear 45 7.3 27 -3 48 48 WSW 6 9 30.08 1019 10 16 0.00 0.00
10:58 pm 22:58 Mostly Cloudy 48 8.7 27 -2.8 45 45 SSW 7 11 30.06 1018 10 16 0.00 0.00
11:58 pm 23:58 Mostly Cloudy 46 7.9 26 -3.4 45 45 Calm 30.06 1018 10 16 0.00 0.00

Powered by AerisWeather